Location: Birdton
(46.1166°N, 66.8166°W)
Time: 05:46:45
(UTC-03:00)

Daily predictions for brighter satellites

Satellite Brightness Start Highest point End
(mag) Time Altitude Azimuth Time Altitude Azimuth Time Altitude Azimuth
ATLAS 2AS CENTAUR R/B 4.2 02:29:37 33° ENE 02:29:37 33° ENE 02:34:20 10° NE
SL-16 R/B 3.9 03:04:14 35° NE 03:04:14 35° NE 03:09:15 10° N
ATLAS 5 CENTAUR R/B 4.2 03:11:04 14° NNW 03:14:49 25° NNE 03:19:53 10° E
Cosmos 2219 Rocket 3.4 03:40:44 10° NNW 03:46:02 38° NE 03:51:19 10° ESE
ARIANE 5 R/B 4.0 03:41:41 10° NNE 03:44:48 33° NE 03:44:48 33° NE
CZ-2D R/B 3.4 03:44:13 10° NNE 03:47:58 37° ENE 03:47:58 37° ENE
Lacrosse 5 4.5 03:50:26 12° ESE 03:50:26 12° ESE 03:51:41 10° E
Okean O Rocket 4.1 03:57:29 10° NE 04:00:11 16° E 04:01:05 15° ESE
Cosmos 1238 Rocket 4.5 04:06:05 54° NNW 04:06:05 54° NNW 04:11:21 10° N
ATLAS 2AS CENTAUR R/B 3.2 04:17:04 55° WNW 04:17:43 56° NW 04:25:46 10° NE
Cosmos 1535 Rocket 4.4 04:11:41 10° N 04:17:32 80° NNE 04:17:32 80° NNE
Resurs 1-4 Rocket 2.5 04:13:33 10° NNE 04:18:00 61° NE 04:18:00 61° NE
Lacrosse 5 rocket 2.8 04:21:46 39° NE 04:21:46 39° NE 04:24:39 10° NE
Nadezhda 3 Rocket 4.1 04:21:13 68° NNW 04:21:13 68° NNW 04:26:49 10° N
Cosmos 2333 Rocket 2.8 04:16:53 10° NNW 04:22:32 55° ENE 04:28:05 10° SE
ARGOS Delta rocket 4.4 04:20:02 10° NNE 04:23:59 57° NE 04:23:59 57° NE
CZ-3A R/B 3.4 04:32:04 37° NNW 04:33:14 47° NNE 04:39:00 10° E
Meteor 2-16 Rocket 4.3 04:27:06 10° N 04:33:17 83° W 04:33:28 82° SW
Cosmos 968 Rocket 3.5 04:37:04 71° NNE 04:37:04 71° NNE 04:41:40 10° NNE
IRS-1D 4.0 04:33:17 10° N 04:37:40 54° NNW 04:37:40 54° NNW
NOSS 3-2 (A) 3.9 04:37:12 10° NW 04:44:38 89° WSW 04:52:42 10° SE
Cosmos 923 Rocket 4.2 04:40:19 10° NNW 04:45:42 72° ENE 04:51:02 10° SSE
SL-16 R/B 3.4 04:49:20 33° NW 04:49:20 33° NW 04:53:07 10° NNW
CZ-4B R/B 4.3 04:42:52 10° NNE 04:47:58 41° E 04:52:28 13° SSE
Cosmos 2237 Rocket 2.3 04:44:31 10° NNW 04:50:11 72° ENE 04:55:48 10° SSE
CZ-2D R/B 4.1 04:47:10 10° NNE 04:50:13 50° NNE 04:50:13 50° NNE
Meteor 1-12 Rocket 4.5 04:45:50 10° NNW 04:50:56 54° WNW 04:50:56 54° WNW
SL-24 R/B 4.3 04:59:08 65° SSW 04:59:52 80° W 05:04:45 10° N
ATLAS 5 CENTAUR R/B 2.4 04:54:22 10° NW 05:00:20 84° NE 05:06:47 10° SE
Cosmos 1980 3.6 04:57:56 10° NNW 05:03:40 85° WSW 05:09:21 10° SSE
Meteor 1-13 Rocket 4.5 05:00:09 23° S 05:03:51 71° E 05:09:35 10° NNE
Cosmos 1821 Rocket 4.2 04:58:47 10° NNW 05:04:50 47° W 05:05:02 47° W
Cosmos 773 Rocket 4.3 05:00:07 10° NNW 05:12:02 - S 05:04:09 48° WNW
Cosmos 2219 3.5 05:05:17 45° WNW 05:05:36 46° WNW 05:11:01 10° NNE
Gbstr 26 Del rocket 4.5 05:05:44 42° W 05:07:46 52° SW 05:15:31 10° SSE
SL-16 R/B 3.2 05:03:23 10° NNW 05:08:54 48° ENE 05:14:22 10° SE
Cosmos 1934 Rocket 4.1 05:02:51 10° NNW 05:08:57 53° W 05:10:20 44° SW
Cosmos 1605 Rocket 3.8 05:03:51 10° NNW 05:09:58 72° W 05:16:08 10° S
UNKNOWN OBJECT B 4.0 05:08:41 10° N 05:11:07 31° NNW 05:11:07 31° NNW
RESURS DK-1 3.7 05:10:27 22° SSE 05:12:26 36° ESE 05:16:15 10° NE
NOSS 0 Rocket 3.9 05:06:50 10° NNW 05:12:59 62° WSW 05:19:06 10° SSE
CZ-4C R/B 4.4 05:17:36 18° SSW 05:17:36 18° SSW 05:19:42 10° S
Cosmos 2084 3.1 05:16:38 74° NNW 05:16:38 74° NNW 05:20:21 10° NE
ADEOS II 3.5 05:13:10 10° NNE 05:18:04 38° E 05:22:56 10° SSE
Cosmos 2344 3.7 05:16:41 34° SW 05:20:33 74° NW 05:29:44 10° NE
NOSS 3-2 (C) 3.9 05:14:27 10° NW 05:21:52 70° WSW 05:29:52 10° SSE
Cosmos 1777 Rocket 4.0 05:21:55 45° WSW 05:23:20 62° WNW 05:28:35 10° NNE
Cosmos 1743 2.5 05:19:40 10° NNW 05:23:29 71° W 05:23:34 70° WSW
CENTAUR R/B 3.8 05:16:20 10° NW 05:23:47 54° NE 05:31:50 10° ESE
Cosmos 2227 Rocket 2.2 05:21:35 26° SSW 05:24:52 82° ESE 05:30:34 10° NNE
Cosmos 1346 Rocket 3.9 05:21:18 10° SSE 05:25:03 45° E 05:28:53 10° NNE
ARIANE 5 R/B 3.8 05:21:26 10° N 05:25:08 24° NW 05:25:08 24° NW
CZ-2D R/B 3.0 05:24:40 10° N 05:29:06 29° WNW 05:29:18 29° WNW
ADEOS Rocket 3.6 05:21:49 10° NNE 05:29:09 71° ESE 05:35:43 10° S
Cosmos 2219 Rocket 2.6 05:24:46 10° NW 05:29:59 38° WSW 05:35:11 10° S
Lacrosse 5 2.1 05:29:39 30° SSW 05:32:03 65° SE 05:37:04 10° NE
ASTRO F (AKARI) 4.4 05:29:53 10° SSE 05:33:01 72° ENE 05:36:15 10° N
Cosmos 2297 Rocket 2.4 05:29:49 15° SSW 05:34:27 72° ESE 05:40:06 10° NNE
BREEZE M DEB (TANK) 2.4 05:33:50 49° WSW 05:34:43 83° NNW 05:42:41 10° ENE
PSLV R/B 4.1 05:31:24 10° N 05:35:23 51° WNW 05:36:15 43° WSW
Okean O Rocket 1.7 05:32:36 10° N 05:36:56 56° WNW 05:38:32 35° SW
Cosmos 2112 Rocket 4.0 05:33:50 10° NNW 05:39:05 62° WSW 05:44:16 10° S
Cosmos 1461 4.3 05:38:43 23° NW 05:39:22 24° NW 05:42:55 10° NNE
Cosmos 1025 Rocket 2.9 05:36:44 21° SSW 05:39:35 76° W 05:43:56 10° N
Cosmos 2061 Rocket 4.1 05:34:00 10° N 05:40:20 80° E 05:46:41 10° SSE
BREEZE-M DEB (TANK) 3.3 05:39:06 27° SW 05:41:00 48° SSE 05:43:31 10° ENE
OE (NEXTSAT) 4.4 05:42:41 47° WSW 05:43:32 67° SSW 05:47:08 10° ESE
Cosmos 1680 Rocket 3.7 05:38:57 10° NNW 05:44:03 48° WSW 05:49:04 10° S
CZ-4B DEB 4.1 05:39:06 10° NNE 05:44:35 75° WNW 05:50:04 10° SSW
CZ-2C R/B 4.1 05:43:00 20° SSW 05:45:43 38° W 05:50:03 10° NNW
Cosmos 1802 Rocket 4.1 05:39:35 10° N 05:45:48 78° E 05:51:56 10° SSE
Cosmos 2100 Rocket 3.9 05:40:44 10° N 05:46:59 84° W 05:53:16 10° S
CZ-4B R/B 3.1 05:43:16 10° N 05:47:33 59° WNW 05:50:33 20° SSW
NOSS 3-4 (A) 3.5 05:43:37 23° SW 05:47:49 76° NW 05:54:28 10° NE
Cosmos 1606 Rocket 3.5 05:43:31 10° NNW 05:47:53 63° W 05:52:10 10° S
NOSS 3-4 (C) 3.5 05:43:40 23° SW 05:47:54 77° NW 05:54:34 10° NE
Cosmos 292 Rocket 3.7 05:43:34 10° NNW 05:48:27 78° WSW 05:53:18 10° SSE
Meteor 1-15 Rocket 4.2 05:44:13 10° N 05:49:49 87° E 05:55:25 10° S
PAYLOAD B 4.3 05:47:52 10° N 05:53:16 57° WNW 05:58:16 12° SW
Tiangong 1 2.1 05:53:12 28° SSW 05:53:59 33° SSE 05:56:46 10° E
BREEZE-M DEB (TANK) 4.4 05:54:22 20° WNW 05:56:58 69° NNE 06:07:26 10° E
IRS-1C Rocket 4.5 05:53:00 10° N 05:58:00 43° WNW 06:01:40 17° SW
Resurs 1-4 Rocket 3.6 05:54:43 10° NNW 05:58:07 17° WNW 05:59:05 17° WNW
Cosmos 1726 Rocket 3.6 05:55:01 10° NNW 05:59:20 56° W 06:03:36 10° S
Lacrosse 5 rocket 2.9 05:57:30 18° WNW 05:59:52 28° NNW 06:03:44 10° NE
Feng Yun 1-1 Rocket 4.5 05:56:36 10° NNE 06:02:15 77° ESE 06:07:59 10° S
Meteor 1-31 Rocket 3.7 06:00:18 10° NNE 06:04:07 51° E 06:07:55 10° S
Cosmos 2082 3.8 05:59:50 17° SW 06:04:10 56° WNW 06:09:43 10° NNE
Cosmos 2298 Rocket 4.2 05:59:04 10° SSW 06:04:20 74° ESE 06:09:40 10° NNE
Okean 2 3.3 06:01:16 10° SSW 06:05:24 69° W 06:09:34 10° N
Cosmos 2333 Rocket 3.1 06:01:50 10° NW 06:06:25 25° WSW 06:10:57 10° SSW
ATLAS 2AS CENTAUR R/B 4.4 06:04:31 11° WNW 06:10:38 26° NNW 06:17:15 10° NE
Thor Agena Rocket 3.9 06:06:57 10° S 06:11:56 42° W 06:16:58 10° NNW
Cosmos 1892 Rocket 3.7 06:07:39 10° SSW 06:12:03 57° WNW 06:16:30 10° N
Aureole 2 Rocket 2.3 06:09:52 10° NNW 06:13:29 82° WSW 06:16:45 10° SSE
PSLV R/B 3.8 06:13:56 10° N 06:18:10 50° WNW 06:22:19 10° SSW
Cosmos 2150 Rocket 4.0 06:14:06 10° SSW 06:19:16 86° ESE 06:24:27 10° NNE
USA 129 1.6 06:20:01 10° S 06:21:56 46° WSW 06:23:42 10° NNW
Cosmos 2016 Rocket 4.0 06:17:48 10° NNW 06:24:06 67° W 06:30:20 10° S
Cosmos 2098 Rocket 2.8 06:20:47 10° NNW 06:24:23 65° W 06:28:55 10° S
CZ-4B R/B 4.0 06:23:43 10° N 06:28:25 32° WNW 06:33:11 10° SW
Ariane Rocket 4.1 06:24:18 10° NNE 06:29:16 48° E 06:34:11 10° S
Cosmos 2173 Rocket 4.2 06:24:12 10° NNW 06:29:56 44° W 06:35:40 10° SSW
SL-08 R/B 4.5 06:25:01 10° NNW 06:31:12 70° W 06:37:27 10° S
Cosmos 1812 Rocket 3.8 06:27:53 10° N 06:32:20 76° E 06:36:48 10° SSE
Cosmos 990 Rocket 4.5 06:27:12 10° S 06:32:24 67° ESE 06:37:38 10° NNE
Cosmos 2237 Rocket 3.4 06:29:50 10° WNW 06:33:36 19° W 06:37:22 10° SW
Cosmos 1666 3.9 06:30:45 10° NW 06:33:47 22° W 06:36:49 10° SW
Cosmos 1515 3.9 06:30:33 10° S 06:34:22 78° E 06:38:13 10° NNE
Cosmos 2228 3.4 06:30:21 10° NNW 06:34:33 43° W 06:38:42 10° SSW
Meteor 2-4 Rocket 4.3 06:30:32 10° SW 06:35:58 39° WNW 06:41:31 10° N
SeaSat 1 3.1 06:32:29 10° SE 06:37:19 61° ENE 06:42:13 10° NNW
COS B Rocket 4.0 06:37:24 12° W 06:37:38 12° W 06:38:48 10° NW
Okean-O 3.1 06:34:05 10° N 06:38:15 41° WNW 06:42:24 10° SW
Cosmos 1174 3.2 06:37:00 10° NNW 06:40:01 82° ENE 06:43:13 10° SE
Cosmos 2123 Rocket 4.0 06:37:02 10° SSW 06:43:13 79° W 06:49:26 10° N
ATLAS 5 CENTAUR R/B 3.6 06:40:08 10° WNW 06:44:34 21° WSW 06:49:12 10° SSW
Cosmos 2058 Rocket 4.1 06:43:48 10° NW 06:47:17 24° W 06:50:45 10° SW
RESURS DK-1 3.6 06:47:08 10° WSW 06:50:35 25° NW 06:54:05 10° N
Cosmos 1340 3.5 06:48:38 10° S 06:52:20 57° E 06:56:06 10° NNE
SL-16 R/B 3.0 06:47:57 10° NW 06:52:47 29° WSW 06:57:35 10° SSW
EXPRESS MD2 4.2 06:49:47 10° WNW 06:53:10 47° SSW 06:59:49 10° SE
Cosmos 1898 Rocket 3.8 06:48:18 10° SW 06:53:26 48° WNW 06:58:33 10° NNE
MOS 1 Rocket 3.6 06:49:48 10° N 06:54:19 47° WNW 06:59:05 10° SW
Meteor 2-17 Rocket 4.5 06:49:24 10° NNW 06:55:32 73° W 07:01:39 10° S
COBE Rocket 4.2 06:51:30 10° N 06:56:07 45° WNW 07:00:36 10° SW
